星链-31914 (STARLINK-31914 )

导读 | 星芒AI

STARLINK-31914 是 SpaceX Starlink 卫星互联网项目中的一颗低轨卫星,属于第三代星链卫星(v1.5)。该卫星于2023年发射,运行在约540公里高度的近地轨道,旨在为全球用户提供高速、低延迟的宽带互联网服务。它采用先进的推进系统和激光通信技术,支持与其他星链卫星的高速数据传输,提高网络效率。作为星链星座的一部分,STARLINK-31914 有助于扩大覆盖范围,增强网络稳定性,推动偏远地区的互联网接入。

基本信息
目录编号:
59902
目录名称:
STARLINK-31914
国际标识:
2024-100T
轨道中心:
EARTH
卫星名称:
星链-31914
卫星全名:
星链-31914 (STARLINK-31914 )
卫星状态:
在轨 (已飞行524 天)
发射日期:
2024-05-28 UTC
国别 :
美国 (US)
星等 :
--
轨道信息
数据来源 国际轨道数据
星历时间: 2025-11-02T20:13:58+0800
16小时前
查看轨道信息
半长轴: 6861.154km
偏心率: 0.0001436
轨道倾角: 43.002°
近地点辐角 259.231°
升交点赤经 123.869°
平近点角 100.838°
近地点: 482.033km
远地点: 484.005km
周期: 94.266分钟
每日圈数: 15.275909
详细信息
固有亮度:
5
最大亮度:
1.5
卫星平台:
Starlink v2.0 mini
覆盖范围:
全球
运营商:
太空探索技术公司
运营商所在国:
美国
制造商(研发单位):
太空探索技术公司
制造商所在国:
美国
使用方式:
暂无
卫星简介
星链(Starlink)计划是由太空探索技术公司(SpaceX)提出的一个巨型低轨卫星互联网星座项目,计划在2019年至2024年间在太空搭建由约1.2万颗卫星组成的“星链”网络,其中1584颗将部署在地球上空550千米处的近地轨道,并从2020年开始工作。该卫星仍在工作。
2D轨道图
3D轨道图
轨道高度分析图
轨道倾角分析图
轨道综合分析图
查看轨道综合分析图